Wind_Speed
41 40 38 36 35 34 34 33 32 31 30 29 28 27 27 27 26 26 25 25 25 24 24 24 23 23 23 22 21 20 18 18 17 16 16 15 14 14 14 13 13 13 13 13 13 12 12 11 11 11 10 10 9 9 9 9 9 9 9 9 10 11 11 11 11 11 11 11 11 11 11 11 10 11 13 13 13 13 13 13 14 14 14 15 16 16 17 17
43 41 39 38 37 36 35 34 33 32 32 31 30 29 28 28 27 27 27 26 26 26 25 25 25 25 24 22 21 20 19 18 17 16 16 15 15 14 14 14 14 13 13 13 13 12 11 11 11 10 10 10 10 10 10 10 10 10 10 11 11 12 12 12 12 13 13 13 13 13 12 12 11 12 13 14 14 14 15 15 15 15 16 16 17 18 18 19
44 42 40 39 38 37 36 35 34 33 33 32 31 30 30 29 28 28 28 27 27 27 27 27 27 26 24 23 22 21 20 19 18 17 17 16 16 15 15 14 14 14 13 13 12 11 11 11 11 10 10 10 10 11 11 11 12 12 12 12 13 14 13 14 14 14 14 14 14 14 14 13 12 12 14 15 15 15 15 16 16 17 17 17 18 19 20 20
45 43 42 40 39 38 37 36 35 34 34 33 33 32 31 30 30 29 29 29 29 28 28 29 28 27 26 25 24 22 21 20 19 18 18 17 17 16 16 15 15 14 13 13 13 12 11 11 11 11 11 11 11 12 12 13 13 14 14 14 14 15 15 15 15 15 15 15 15 15 15 14 13 13 14 15 16 17 17 17 18 18 18 18 19 20 21 22
46 45 44 42 41 40 39 38 37 36 35 35 34 34 33 32 31 31 30 30 30 30 30 30 30 28 27 26 25 24 23 22 21 20 20 19 18 18 17 16 15 15 14 14 13 13 12 12 11 11 11 11 12 12 12 13 14 15 15 16 16 16 16 16 16 16 16 17 16 15 15 15 14 14 15 17 18 19 19 19 20 20 20 20 20 21 22 23
48 47 46 44 43 41 40 39 38 37 37 36 36 36 35 34 33 32 32 31 31 31 32 32 31 30 29 28 27 26 25 24 22 22 21 20 20 19 18 17 16 16 15 15 14 14 13 12 12 11 11 11 12 12 13 14 15 15 16 16 17 17 16 16 16 17 17 17 17 16 16 16 15 16 17 18 20 20 21 21 22 22 22 21 22 22 23 24
50 48 47 46 45 43 42 41 40 39 38 38 38 37 37 36 35 34 33 33 33 33 33 33 32 31 30 30 29 28 27 25 24 23 23 22 22 21 20 19 18 18 17 16 16 14 14 13 12 12 12 12 12 12 13 14 15 15 16 16 16 16 16 16 17 17 17 17 18 17 18 17 16 17 18 21 22 21 22 23 23 23 24 24 24 24 24 24
51 50 49 48 47 45 44 43 42 41 40 40 39 39 39 38 36 36 35 34 34 35 35 35 34 33 32 32 31 30 29 27 26 25 25 24 23 23 22 21 20 19 19 18 17 16 15 14 14 13 13 13 13 13 13 14 14 15 15 16 16 16 16 16 17 17 17 17 18 18 19 18 18 19 20 23 24 22 22 23 23 25 25 26 25 24 24 23
53 52 51 49 48 47 46 44 43 42 41 41 41 41 41 40 39 37 37 36 36 36 37 37 36 35 34 34 33 32 31 29 28 27 26 25 25 24 24 23 22 21 20 19 18 18 17 16 15 15 14 14 13 13 13 14 14 15 15 15 15 15 15 16 17 17 17 18 19 20 21 20 20 20 21 25 26 23 23 23 24 25 26 25 24 23 23 22
54 53 52 51 50 49 48 46 45 43 43 43 43 43 42 42 41 40 39 38 38 38 39 39 38 37 36 36 35 35 33 32 31 29 28 27 26 26 25 24 23 22 22 21 20 19 19 18 17 16 16 15 14 14 14 14 14 15 15 15 16 16 17 17 18 19 19 20 21 22 23 22 21 21 22 27 26 24 24 23 24 24 25 24 23 22 21 21
56 55 54 53 52 51 49 48 47 45 44 44 44 44 43 43 42 41 41 40 40 40 41 41 40 39 39 37 37 36 35 34 33 31 30 28 28 27 26 25 25 24 23 22 22 21 20 19 18 18 17 16 16 16 15 15 15 16 16 17 17 18 19 20 21 22 21 22 22 23 24 22 22 22 24 26 25 24 24 23 24 23 24 24 23 22 21 21
56 56 55 55 53 52 51 50 48 47 46 45 45 44 44 44 43 43 42 42 42 42 42 43 42 41 40 39 38 37 36 35 34 33 32 30 29 28 28 27 26 25 24 24 23 22 22 21 20 19 18 18 18 17 17 17 17 17 17 18 19 19 20 22 23 23 23 23 24 25 24 20 21 23 24 25 25 25 25 24 25 24 24 24 24 23 23 22
55 55 55 55 55 54 53 52 50 49 47 47 46 46 45 45 45 44 44 43 43 43 44 44 44 43 42 41 40 39 37 37 36 35 34 32 31 30 29 28 27 27 26 25 24 23 23 22 22 21 20 20 20 19 19 18 18 18 19 19 20 21 22 23 24 24 24 25 24 26 23 18 21 25 24 25 26 26 26 26 25 24 24 24 24 25 25 25
53 54 54 54 54 54 54 53 52 51 50 49 48 48 47 46 46 46 45 45 44 44 45 46 46 45 44 43 42 40 39 38 37 36 35 34 33 31 30 30 29 28 27 26 26 25 25 24 23 23 22 22 22 22 21 20 20 20 20 21 22 23 22 23 24 24 24 25 25 27 25 18 21 27 26 27 28 28 27 26 25 24 23 23 23 24 25 26
52 52 53 53 53 53 53 53 53 52 51 51 50 49 49 48 48 48 47 47 46 46 46 47 48 47 46 45 44 42 41 40 39 38 37 36 34 33 32 31 30 29 29 28 27 27 26 26 25 24 24 24 23 23 23 22 22 22 23 24 24 24 23 23 24 24 25 26 26 28 27 21 21 26 28 28 29 28 27 25 24 23 22 22 22 23 24 26
51 52 52 52 52 53 53 53 53 52 52 52 51 51 50 50 49 49 49 48 48 47 47 48 49 49 48 47 45 44 43 42 41 40 38 37 36 35 34 33 32 31 30 30 29 28 28 27 27 26 26 25 25 24 24 24 23 24 27 26 25 25 24 24 24 25 26 27 28 28 28 24 22 26 29 29 29 27 25 23 23 22 22 22 22 23 24 26
50 51 51 52 52 52 52 52 52 52 52 52 52 52 51 51 50 50 50 50 50 49 49 49 50 50 50 48 47 46 45 44 42 41 40 39 38 37 36 35 34 33 32 32 31 30 29 29 28 27 27 26 25 25 25 26 26 28 29 27 26 26 25 25 25 26 27 29 29 30 29 26 24 27 28 28 28 26 23 22 22 22 22 22 23 24 25 26
49 50 50 51 51 51 52 52 52 52 52 52 52 52 52 52 52 51 51 51 51 51 51 51 51 51 51 49 48 48 47 45 45 44 43 41 40 39 38 37 36 35 34 33 32 32 31 30 30 29 28 27 26 26 28 28 29 30 29 28 28 27 27 26 26 27 29 30 31 32 30 27 26 28 28 29 28 25 23 22 22 22 23 24 24 26 26 27
50 50 50 50 51 51 51 51 51 51 51 51 51 51 52 52 52 52 52 52 53 53 52 52 51 51 51 50 49 50 49 48 47 46 45 44 42 41 41 40 38 37 36 35 35 34 33 32 31 30 28 28 28 29 30 30 30 30 30 30 29 29 28 27 27 29 31 33 33 33 33 31 29 27 28 30 29 25 23 23 23 23 24 25 27 28 29 30
50 50 50 50 50 50 50 50 51 50 50 50 50 50 51 51 52 52 52 52 53 53 53 53 52 52 52 52 52 52 51 51 49 48 47 46 45 44 43 42 40 39 38 38 37 36 35 34 32 31 30 30 31 31 31 31 31 31 31 31 31 31 29 28 29 31 33 36 36 35 35 34 32 29 28 31 31 27 24 24 24 24 25 27 28 29 31 32
52 51 51 50 50 50 50 50 50 50 50 50 49 50 50 50 51 51 52 52 53 53 53 54 54 54 54 53 53 53 53 52 51 50 49 48 47 46 45 43 42 42 41 40 39 37 36 35 33 32 32 32 32 32 32 31 31 32 33 32 32 32 30 29 31 33 36 39 38 38 38 37 35 32 30 31 30 28 27 26 25 24 26 28 29 30 31 33
54 53 52 52 51 51 50 50 50 50 49 49 49 49 49 49 50 51 51 52 52 53 54 54 54 54 55 55 54 54 54 54 53 52 51 50 49 48 47 46 45 44 44 42 40 39 38 36 34 34 34 34 34 33 33 33 33 33 34 34 34 33 32 32 33 36 38 41 41 42 42 40 37 35 32 31 30 30 29 28 26 26 28 30 30 30 30 31
56 55 54 53 52 52 51 51 50 50 49 50 49 49 49 49 50 50 51 52 52 52 53 54 54 55 55 56 55 55 55 54 54 54 53 52 51 50 49 48 47 46 45 43 42 41 39 37 36 36 36 35 35 35 34 35 34 35 35 35 35 33 34 36 36 38 41 43 45 46 46 43 40 38 34 31 31 31 29 28 27 28 30 31 31 30 30 30
59 57 56 55 54 53 52 52 51 50 50 50 50 50 50 49 49 50 51 53 53 52 53 53 54 55 55 56 56 57 57 56 56 55 55 54 53 52 51 49 49 48 46 45 43 42 41 39 39 38 37 36 36 36 36 37 37 36 36 36 36 35 37 39 40 42 43 45 47 48 49 46 42 40 35 32 32 31 29 28 29 30 32 32 32 31 31 31
61 59 58 56 55 54 54 53 51 51 51 51 51 51 51 50 50 50 51 54 54 52 52 53 54 54 54 56 57 57 58 58 57 56 55 54 53 53 52 51 51 49 47 46 45 44 42 41 40 39 38 38 38 37 38 39 39 38 37 37 38 38 40 42 43 45 46 48 48 49 51 48 43 41 36 32 32 31 27 27 30 32 33 33 33 34 34 33
64 62 60 59 57 56 55 54 52 53 52 52 53 53 53 52 51 52 52 55 57 53 52 53 54 54 54 56 57 57 58 58 57 56 56 55 54 54 53 52 51 49 48 46 46 46 44 42 41 41 40 40 40 40 40 40 39 39 39 39 39 41 42 44 46 48 49 50 49 48 51 50 45 40 36 33 32 30 26 27 30 33 33 34 35 36 36 35
65 64 63 62 60 58 57 56 55 55 53 54 55 54 54 53 53 53 53 56 59 54 52 53 54 54 54 55 56 56 58 59 56 56 56 55 54 54 53 53 51 49 47 47 48 48 46 43 42 42 43 42 42 41 40 41 41 42 41 41 41 43 44 46 47 48 49 49 50 48 48 50 45 38 35 33 31 28 26 27 31 33 33 35 36 37 37 37
63 64 65 64 62 61 59 58 57 55 55 56 56 56 56 55 55 55 55 58 60 55 53 53 54 55 55 55 55 57 59 59 56 56 55 55 54 54 53 53 51 49 48 48 50 49 47 46 44 44 44 44 43 42 41 42 43 43 43 43 44 44 45 46 46 47 48 48 50 47 44 47 44 37 36 35 30 27 26 28 31 32 33 35 37 38 38 38
60 63 64 65 65 64 62 60 58 57 58 57 57 58 57 57 58 57 58 60 60 57 55 54 54 56 57 57 56 57 59 59 58 56 55 55 55 54 54 52 51 50 50 50 50 49 49 48 46 45 45 45 44 43 43 44 44 44 45 45 45 45 45 45 46 46 47 49 48 45 43 44 43 38 36 36 31 28 28 30 32 33 35 37 39 40 39 39
60 61 63 65 65 65 64 63 61 60 59 59 59 59 59 60 59 59 62 62 59 58 58 56 56 56 57 58 57 57 58 58 57 56 55 55 55 54 54 53 52 52 52 51 51 51 50 49 48 47 46 45 44 45 45 45 45 45 45 46 46 46 45 46 47 47 48 49 46 44 42 43 45 41 36 35 33 32 33 34 36 36 37 39 40 41 41 40
59 61 63 64 63 63 64 63 63 63 62 60 60 60 61 61 61 63 64 60 57 60 61 58 57 56 57 57 57 57 58 58 57 57 56 55 55 54 54 53 53 52 52 51 51 51 51 50 49 48 47 46 46 46 46 46 47 46 46 46 46 47 47 48 49 49 50 49 45 44 43 44 48 45 40 39 36 35 37 38 41 39 38 40 42 43 43 43
57 59 62 63 62 62 62 62 63 64 65 63 62 62 62 62 64 67 65 59 59 63 63 61 58 57 58 58 58 58 58 59 58 58 58 57 56 55 54 53 52 52 53 53 52 52 51 51 50 50 50 49 49 48 48 47 47 46 45 45 46 48 50 52 52 52 51 49 46 46 46 48 51 47 44 44 41 39 39 41 45 44 41 43 45 45 45 44
58 60 62 63 63 62 61 61 61 64 65 64 65 65 65 66 68 67 65 63 64 65 63 62 61 60 61 61 61 60 60 60 59 59 59 58 58 57 56 55 54 54 55 55 54 53 53 53 52 53 52 51 50 49 48 47 46 46 46 47 49 50 53 54 54 52 50 48 46 47 49 52 53 48 46 47 45 44 43 44 48 49 46 47 47 46 45 43
56 58 60 62 64 64 63 62 62 63 64 64 66 68 69 71 69 66 65 65 65 66 64 64 63 62 63 62 62 62 61 61 60 60 60 60 60 59 58 57 57 56 56 56 56 56 56 56 54 54 53 51 50 49 48 47 47 48 49 51 52 52 53 53 51 51 50 49 49 50 53 54 52 50 49 49 49 48 46 47 50 51 50 49 48 47 45 43
55 54 56 58 61 61 62 64 65 66 65 65 68 70 71 71 66 62 63 63 64 66 67 69 69 67 66 64 63 63 63 63 62 61 62 61 61 60 59 58 57 56 56 56 57 57 58 58 55 54 53 52 51 50 50 49 50 52 53 55 55 52 50 48 49 50 51 53 53 54 55 54 51 51 51 51 51 48 47 47 47 49 50 49 48 47 45 43
60 57 55 55 56 56 57 60 64 67 68 68 71 74 72 67 60 56 56 58 60 62 63 68 71 71 70 68 66 65 65 64 64 64 64 63 62 61 60 59 58 58 57 57 57 58 58 57 56 55 54 53 53 53 53 52 53 54 56 56 54 51 48 48 50 52 53 56 56 55 55 53 51 49 47 48 48 46 45 45 44 45 46 46 46 46 44 42
64 63 60 57 54 54 55 56 59 64 67 68 71 73 70 65 60 58 57 56 58 59 59 63 66 67 68 69 69 68 67 67 66 66 65 65 65 63 62 61 60 59 58 57 57 57 57 57 57 56 56 55 55 55 55 55 56 57 57 55 52 51 51 51 53 54 55 58 57 56 55 53 51 46 42 42 44 44 45 44 42 42 42 43 44 44 43 41
65 66 66 62 59 57 56 55 56 60 62 64 66 67 67 65 61 61 61 60 61 62 62 63 65 65 65 65 65 66 68 68 68 69 68 68 68 66 64 63 61 60 59 58 58 58 58 58 58 58 58 58 57 57 58 58 58 57 55 54 53 53 54 54 55 56 56 59 59 57 55 53 49 43 40 41 44 46 47 45 42 40 41 42 42 41 40 38
65 66 66 64 64 63 61 58 58 60 62 65 65 62 63 65 62 62 65 65 65 67 66 65 66 67 67 66 64 64 65 66 67 68 68 69 70 68 67 66 65 64 62 61 60 58 56 56 58 59 59 58 58 58 59 58 57 55 54 54 54 55 56 56 56 57 57 59 60 58 56 53 46 42 42 44 47 49 49 46 41 37 38 40 39 38 37 36
65 67 64 63 65 66 66 63 62 65 67 67 65 62 61 61 60 61 63 64 67 69 69 67 67 69 68 66 65 65 64 64 65 65 65 66 67 67 67 67 66 64 62 60 59 57 57 58 59 60 59 59 59 58 57 55 53 54 54 55 56 56 58 58 58 58 58 59 59 58 57 52 46 45 46 47 50 50 49 47 41 36 36 37 36 35 35 34
66 67 64 62 65 67 67 68 69 70 71 69 65 62 60 57 56 59 60 61 63 66 68 69 70 71 70 68 67 65 64 64 64 64 63 63 63 63 63 62 61 60 58 57 57 57 57 58 58 59 59 59 58 56 55 54 55 56 56 57 58 58 59 60 60 60 59 58 57 57 58 53 47 48 49 49 51 49 48 48 42 37 36 36 35 35 34 34
68 66 62 62 66 67 68 70 71 71 73 71 65 61 60 58 58 60 61 61 62 63 64 66 68 70 72 72 72 70 68 67 65 65 64 62 61 60 59 58 57 57 55 55 54 52 52 54 55 57 59 59 58 57 57 58 58 59 60 61 61 61 62 61 61 60 58 58 57 57 59 54 47 50 52 52 52 48 48 51 46 39 37 35 35 35 35 35
69 66 63 65 67 67 68 69 69 71 72 69 65 64 64 63 63 61 59 60 64 65 64 64 64 66 69 71 72 72 72 70 69 67 66 65 64 62 61 61 60 59 57 56 54 52 53 55 55 57 58 58 58 59 60 61 62 64 65 65 64 63 61 60 60 59 59 59 57 57 61 57 50 52 56 56 54 50 50 53 50 42 38 36 35 34 34 34
70 68 67 68 68 68 69 70 69 70 70 67 67 69 69 67 68 66 63 63 65 66 67 66 65 65 65 67 69 71 71 71 71 71 70 70 69 67 66 67 65 64 63 62 61 60 61 60 59 59 61 62 62 63 64 65 67 67 66 64 63 62 60 60 60 59 59 59 57 58 63 60 54 56 58 57 57 55 54 56 51 44 41 38 36 34 33 32
72 72 71 71 70 69 69 69 69 71 71 68 68 69 71 72 71 70 69 68 67 67 67 66 65 65 65 66 66 68 70 71 72 72 73 73 72 71 71 71 70 70 68 68 68 68 68 66 64 63 65 66 66 65 65 65 64 63 62 61 60 59 58 57 56 55 58 60 59 61 65 61 57 58 58 57 58 58 57 57 52 46 43 40 38 36 33 30
72 75 75 73 72 72 71 69 68 69 69 70 71 71 71 73 73 71 72 73 72 70 68 66 65 66 68 68 68 68 69 70 71 72 72 72 72 72 72 72 71 71 70 70 70 70 71 70 69 69 69 70 68 65 64 63 63 63 61 60 59 57 56 56 55 57 61 63 64 65 66 63 59 58 57 56 58 58 57 55 51 47 45 42 41 39 34 32
71 75 76 75 74 74 74 73 71 70 69 70 73 74 73 72 72 73 75 77 76 74 71 70 70 70 70 70 70 70 70 70 70 71 71 71 71 71 71 70 70 70 69 68 67 67 68 69 69 70 72 72 70 67 67 67 67 65 64 62 61 60 59 60 62 63 63 66 68 66 64 64 60 56 56 57 58 58 56 53 50 48 46 45 43 41 38 37
68 72 75 76 76 76 76 73 71 71 71 72 74 76 74 73 72 73 74 75 76 76 76 74 73 70 69 68 68 70 70 71 71 71 69 69 69 70 70 70 69 69 69 69 69 70 70 69 68 67 69 70 68 67 67 68 68 67 66 66 64 63 64 66 67 66 66 71 72 65 64 67 63 57 57 59 59 58 55 52 51 49 48 46 45 45 44 44
65 68 71 73 75 77 77 74 70 69 70 70 72 74 76 75 73 72 71 72 74 76 78 78 75 71 67 66 67 69 70 71 72 71 69 67 68 68 68 69 70 70 70 70 70 72 73 73 70 68 68 67 65 64 65 66 68 69 69 69 68 68 69 70 70 69 70 74 72 66 66 67 61 57 59 58 57 55 53 52 51 49 48 48 48 49 49 50
64 65 66 69 72 74 76 75 74 71 69 69 70 71 72 75 75 73 73 73 73 74 75 77 75 72 70 69 70 70 68 67 69 68 67 67 67 67 67 67 67 66 67 68 68 70 72 73 71 68 69 69 66 63 64 65 66 69 70 70 70 71 71 72 71 69 70 73 69 65 67 65 59 56 56 54 52 50 50 50 49 48 49 50 51 51 52 52
65 65 65 67 70 71 73 74 74 74 73 73 73 71 70 72 73 74 75 75 74 73 73 73 71 70 71 72 74 73 68 66 66 65 65 67 68 67 66 65 65 65 65 66 66 67 68 69 69 69 71 72 69 66 67 68 67 69 70 68 68 69 70 69 66 63 64 65 64 64 65 60 54 52 51 51 50 49 49 49 49 49 50 51 52 53 53 51
66 66 66 68 70 71 71 72 73 75 76 76 75 74 74 72 70 72 75 76 75 73 72 71 69 70 72 74 75 74 70 68 68 67 67 69 69 69 68 66 66 67 68 68 66 64 64 66 68 69 70 71 67 65 65 66 67 69 66 61 59 61 62 62 60 58 59 60 61 63 60 53 50 52 53 52 52 51 51 50 49 49 50 52 53 53 52 50
Wind_Direction
210 210 211 212 212 212 211 210 210 209 209 209 210 210 210 210 210 210 209 208 207 206 205 203 199 196 193 192 191 190 188 187 189 190 189 190 192 194 196 198 199 200 201 202 203 204 204 206 208 212 213 217 221 225 230 235 240 243 247 252 257 262 266 271 275 280 283 285 286 289 290 292 297 299 299 298 300 301 298 297 299 300 301 303 305 307 309 310
211 211 212 213 214 214 214 213 212 212 211 211 212 212 212 212 212 211 210 209 208 207 205 202 199 196 194 194 193 191 189 190 192 193 194 195 197 198 199 200 200 200 201 201 203 202 202 204 207 212 215 220 226 233 238 243 248 251 255 258 262 266 270 274 278 281 283 284 285 286 287 290 295 298 299 299 301 301 301 300 299 299 300 301 302 304 306 306
212 213 213 214 215 215 216 215 215 215 214 214 214 214 214 214 214 213 212 210 209 208 205 202 199 197 196 195 195 194 192 194 196 198 199 200 201 202 202 202 201 201 202 203 205 205 204 207 213 218 224 230 236 243 248 253 256 258 261 263 265 268 272 276 278 281 282 282 282 283 286 289 292 295 298 301 301 300 300 299 296 296 298 298 300 302 302 302
214 214 215 216 216 217 217 218 218 218 218 217 216 216 216 216 215 214 213 212 211 209 206 203 200 198 197 197 197 196 196 198 200 201 203 204 203 204 204 203 203 203 204 206 209 210 211 214 219 226 233 239 245 249 255 259 262 264 266 267 269 271 273 276 278 279 279 279 280 281 284 287 291 294 298 302 300 298 299 297 296 296 296 298 299 299 299 300
216 216 217 217 218 218 219 219 219 220 220 220 219 218 218 218 217 216 215 214 212 210 207 204 202 200 199 199 199 199 200 201 202 204 205 205 205 206 206 206 206 206 206 209 212 214 216 220 224 230 237 244 250 256 260 264 267 269 271 271 271 273 275 277 278 278 278 279 280 282 284 287 292 294 299 302 298 298 299 297 296 297 297 298 297 297 298 299
218 218 219 219 220 220 220 221 221 221 221 222 221 221 220 219 219 218 217 216 214 211 208 205 203 203 202 202 201 201 203 204 204 206 206 207 207 208 208 208 209 208 209 211 214 217 219 223 227 233 240 247 254 260 265 269 271 272 273 274 275 277 278 278 278 278 279 281 283 284 286 288 292 295 299 299 296 297 298 296 297 298 298 297 297 298 299 299
220 221 221 221 222 222 222 222 223 223 223 223 223 222 221 220 220 219 219 218 215 213 210 207 205 205 205 205 204 205 206 206 207 207 207 208 209 209 209 210 211 212 213 215 217 219 223 226 230 235 241 249 256 262 267 270 273 275 276 277 278 279 279 279 279 279 281 283 285 287 288 289 292 296 299 296 294 295 295 297 299 298 297 297 298 300 300 300
222 223 223 224 224 224 224 224 224 224 225 224 223 222 221 221 221 220 220 219 217 214 211 209 207 207 207 207 207 208 209 209 210 209 209 210 210 210 211 211 213 215 216 218 220 223 225 228 232 238 243 249 256 262 267 271 274 277 277 278 279 280 280 281 281 281 284 285 287 289 289 291 293 296 298 293 290 292 294 296 298 297 297 298 299 300 299 298
224 225 225 226 226 226 226 226 226 226 226 225 224 222 221 221 220 220 220 220 219 216 213 210 209 209 209 210 209 211 211 211 212 212 211 212 213 213 213 213 215 217 219 221 223 226 229 232 236 241 246 251 257 263 268 272 275 277 278 280 281 282 282 282 283 284 286 287 288 289 288 290 292 295 295 288 288 293 294 295 295 296 297 298 299 300 298 296
224 225 226 227 227 227 228 228 228 228 227 225 224 222 221 221 220 220 220 220 220 217 214 212 211 211 212 212 212 213 213 213 214 215 214 213 215 216 216 217 218 220 222 224 227 229 232 234 239 245 249 254 259 263 267 272 275 277 279 281 281 283 283 284 285 285 287 288 289 287 287 289 292 292 287 284 289 293 292 293 294 295 296 298 300 300 299 296
224 225 225 226 227 227 228 228 228 229 228 226 224 222 221 221 221 221 221 221 220 219 216 213 213 213 214 214 214 215 215 216 216 217 217 216 217 218 219 220 222 224 226 228 231 233 234 236 241 247 251 255 260 263 267 270 272 275 277 279 281 283 284 285 286 287 289 290 289 287 287 290 291 286 282 285 290 291 291 292 292 293 295 296 298 299 299 297
224 224 225 226 226 226 227 227 228 228 228 227 225 223 222 222 223 223 223 222 221 220 217 215 214 214 215 216 216 217 218 219 219 219 220 219 219 221 222 224 225 228 230 232 234 236 237 239 244 248 252 257 261 264 267 269 272 274 277 279 281 282 283 285 287 290 293 292 290 288 288 292 289 284 284 288 291 290 291 291 291 292 293 294 296 296 296 295
224 224 225 226 226 226 226 226 227 227 227 227 226 225 224 224 224 224 224 224 223 221 219 217 216 216 217 217 218 219 220 221 221 222 222 223 223 224 225 227 228 231 233 235 237 239 241 244 247 250 253 257 261 264 267 270 274 276 277 279 280 280 282 285 288 293 295 294 293 289 288 292 288 286 289 290 290 290 290 290 291 293 293 293 294 294 293 292
224 224 225 226 226 226 227 227 227 227 227 226 226 226 226 226 226 226 226 226 225 224 222 219 217 217 218 218 219 220 221 222 223 224 225 226 226 227 228 230 231 233 235 238 239 241 244 247 250 252 254 257 260 263 266 270 273 276 278 279 279 279 283 288 292 296 296 295 293 290 290 292 288 290 293 291 291 292 291 292 293 293 293 293 293 291 290 289
224 224 225 225 226 227 227 227 227 227 227 227 226 226 227 227 227 227 227 227 227 226 224 221 219 219 219 220 221 222 222 224 225 225 227 228 229 230 231 232 234 236 238 240 242 244 246 249 251 253 255 257 259 262 266 269 273 276 277 275 276 281 286 291 294 296 295 293 292 291 293 293 290 292 293 292 293 294 294 294 294 294 294 293 291 289 288 287
225 225 225 225 226 227 227 228 228 228 228 228 227 227 228 228 228 228 228 228 228 227 226 224 222 220 220 221 222 223 223 225 226 227 228 229 230 231 233 234 236 238 240 242 244 246 248 250 253 255 257 258 261 264 267 269 272 272 272 274 279 285 289 292 293 294 293 292 292 291 292 295 291 289 290 292 294 295 296 296 297 297 295 292 290 288 288 287
226 226 225 225 226 226 227 228 228 229 229 228 228 228 228 229 229 229 229 229 229 228 227 226 223 222 222 222 223 224 224 225 227 228 229 230 231 233 234 236 237 239 241 243 245 247 249 251 254 256 258 261 263 266 267 268 268 268 271 277 282 286 288 289 290 292 292 292 292 291 292 295 291 287 289 292 293 294 296 299 300 299 296 294 292 291 290 289
227 227 226 226 226 226 227 228 228 229 230 229 229 229 229 229 229 230 230 230 230 230 229 227 225 224 223 223 224 225 225 226 228 229 230 231 232 234 235 237 238 240 242 244 246 248 250 252 255 257 260 263 265 266 266 265 267 270 274 279 282 284 285 287 290 291 291 291 292 292 293 293 289 287 289 289 289 291 297 299 299 297 296 296 295 294 293 293
227 227 227 227 227 227 227 227 228 229 230 230 230 230 230 230 230 230 230 230 230 230 230 229 227 226 225 224 224 225 226 227 228 230 231 232 233 234 236 237 239 241 243 244 246 248 250 253 255 258 261 264 264 265 266 268 270 273 276 278 279 282 284 287 289 289 290 290 291 292 293 292 288 287 286 286 287 290 295 297 296 295 296 296 295 294 294 294
226 227 227 228 228 228 228 228 228 228 229 230 231 231 231 231 231 230 230 230 230 231 230 229 228 227 225 225 225 225 226 227 228 230 231 233 234 235 237 238 240 242 243 245 246 248 251 254 256 259 261 262 264 267 269 271 273 274 275 276 278 281 284 286 285 287 289 289 290 291 291 290 289 286 282 283 286 290 292 292 292 293 293 292 291 291 291 290
226 227 227 228 228 229 229 229 229 229 229 230 230 231 232 232 232 231 230 230 230 230 230 229 228 227 226 225 225 226 227 228 229 230 232 233 235 236 238 240 241 242 243 245 247 249 252 255 257 258 260 263 266 268 270 272 273 274 275 276 278 281 282 282 283 286 287 287 289 291 289 289 290 286 281 280 283 286 287 289 290 289 288 287 288 289 289 289
226 226 227 227 228 229 229 230 230 230 230 231 231 231 232 232 232 232 231 231 230 230 230 230 229 228 227 226 226 226 227 228 230 231 233 234 236 237 238 240 241 242 243 245 248 249 252 255 256 257 260 263 266 268 270 272 272 273 275 276 278 280 281 280 282 284 286 288 290 290 288 288 288 286 282 280 280 281 283 287 288 285 285 287 289 291 292 293
226 226 227 227 228 228 229 230 231 231 231 232 232 232 232 232 233 233 233 232 231 230 230 230 229 228 227 227 227 227 227 228 230 231 233 234 236 237 238 240 241 243 245 247 248 250 253 254 255 258 261 263 265 268 270 272 273 274 274 276 278 280 280 281 282 285 287 290 290 290 288 286 285 285 283 281 278 278 281 285 287 285 286 289 292 294 295 295
226 226 227 228 228 228 229 230 231 232 232 233 233 233 233 233 234 234 235 234 232 231 231 230 229 228 227 227 227 227 228 228 230 232 233 234 236 238 239 241 243 244 246 247 249 251 253 255 256 258 261 263 266 269 271 272 273 273 274 277 279 280 280 282 285 287 289 289 290 291 288 284 283 284 283 282 279 278 281 285 286 286 287 291 294 295 294 293
227 227 227 227 228 229 229 229 231 231 232 233 233 234 234 234 235 235 236 236 233 231 231 232 231 229 228 229 228 228 229 229 231 233 234 236 237 239 240 242 244 246 247 248 250 251 253 255 257 259 261 263 266 269 271 272 272 273 275 277 278 279 281 285 287 289 289 289 289 290 287 283 282 283 284 282 278 276 279 283 284 284 287 291 293 294 293 291
228 227 227 227 228 229 230 230 230 230 231 232 233 234 234 235 236 236 237 238 236 231 231 233 232 231 230 230 230 230 231 230 231 233 235 236 238 240 241 243 245 246 248 249 251 252 254 255 257 259 261 263 266 268 270 271 272 274 276 277 278 280 283 286 288 289 289 288 287 286 284 283 282 283 284 281 277 275 275 278 279 281 285 288 289 291 291 290
231 230 229 228 228 228 229 230 230 230 231 232 233 234 235 234 235 236 238 240 238 233 231 233 233 233 231 231 232 232 232 232 232 234 235 237 239 241 242 244 246 247 249 250 251 253 254 255 257 259 261 263 266 268 270 271 273 275 277 277 278 281 284 286 287 287 287 287 285 282 283 286 283 282 282 277 275 274 271 275 278 279 283 286 287 289 290 290
235 234 232 231 230 229 229 230 231 231 232 232 233 234 235 235 235 236 237 239 238 234 232 233 234 234 233 232 232 233 234 233 233 234 236 238 239 241 242 244 246 248 249 250 252 254 255 256 257 259 261 264 267 269 270 272 274 275 276 277 280 283 284 285 286 285 284 283 281 281 285 288 285 281 280 277 276 276 274 279 282 282 285 286 287 289 290 292
235 236 235 234 233 231 230 230 231 232 233 234 234 235 235 236 236 236 237 238 237 236 234 233 234 235 235 234 233 234 235 235 234 235 236 238 240 241 242 244 246 248 249 251 253 255 256 257 258 260 262 265 267 269 270 271 273 274 276 278 281 282 283 284 283 282 282 279 279 282 287 290 285 277 276 278 281 283 280 283 285 285 288 288 288 289 291 293
234 235 236 236 235 234 233 232 232 233 234 234 235 235 236 236 237 237 238 237 237 238 237 234 234 235 236 237 236 236 237 237 237 238 238 239 241 242 243 245 246 248 250 252 254 256 258 259 260 262 264 265 267 268 269 270 272 273 276 278 281 282 282 282 280 279 278 276 279 284 286 289 283 276 276 280 284 285 284 286 287 287 288 288 289 291 292 293
234 234 235 237 237 236 235 234 234 235 235 235 236 236 236 237 237 238 238 238 239 240 240 238 236 236 237 239 239 239 239 240 240 241 242 242 243 244 245 246 248 250 252 254 255 257 259 260 262 263 264 265 266 266 267 269 271 274 277 280 282 282 281 279 277 276 275 276 280 283 284 284 279 278 283 285 285 285 285 289 291 290 290 290 291 292 293 293
233 234 235 237 238 237 236 235 236 237 237 236 237 236 237 239 239 238 238 238 239 239 240 240 238 237 238 239 240 241 241 242 242 243 244 245 245 245 246 248 249 251 253 253 255 256 258 259 261 262 263 264 266 267 269 271 274 276 278 279 278 278 277 275 274 273 274 278 281 282 282 279 277 280 285 286 286 286 286 288 290 291 292 291 291 291 292 293
229 232 234 236 237 237 236 235 235 237 238 238 238 238 237 237 239 239 239 238 239 240 241 242 240 239 239 239 240 241 242 243 243 244 246 246 247 247 247 248 249 251 253 254 256 257 258 259 261 263 265 267 268 270 271 273 274 275 275 275 275 274 274 273 274 275 276 278 279 279 279 278 279 283 285 285 286 285 286 286 287 289 291 290 290 291 292 292
226 228 231 233 235 236 235 234 235 237 238 239 240 240 238 237 239 240 241 240 241 243 243 244 244 243 242 242 242 243 244 244 245 246 247 248 249 249 249 250 251 253 255 257 258 259 260 261 262 264 266 267 269 270 272 272 272 273 273 273 273 273 273 273 275 276 277 277 276 276 276 279 283 286 286 285 285 285 286 285 285 288 290 291 292 292 292 293
226 227 228 229 231 233 234 234 233 235 237 237 239 240 239 240 241 241 243 244 243 244 244 245 245 245 244 243 243 244 245 246 246 247 248 249 250 251 252 253 254 255 256 257 259 260 261 262 263 265 266 267 268 269 270 270 270 271 272 272 272 272 272 273 273 274 274 275 275 276 278 281 285 286 286 286 286 288 287 286 286 289 290 291 292 292 292 293
227 227 228 228 229 230 232 233 233 235 237 237 238 239 239 241 242 242 243 244 244 244 244 246 247 247 246 245 244 244 245 246 247 248 249 250 251 251 252 254 255 256 256 258 259 260 261 262 263 264 265 265 266 267 268 268 269 270 271 271 272 271 270 270 270 271 272 274 276 279 280 283 285 285 285 286 287 289 289 290 291 290 290 290 290 290 290 291
228 227 228 228 228 229 231 233 233 234 236 238 240 242 242 241 241 242 242 242 243 244 244 246 248 249 249 248 247 246 246 247 247 248 249 250 250 250 251 253 255 256 258 259 260 261 262 263 263 263 265 265 265 266 266 267 268 268 269 269 269 268 268 268 270 271 273 275 277 279 280 281 283 285 285 284 286 289 291 294 293 292 291 289 289 289 289 289
230 229 228 228 229 229 230 231 232 234 236 238 240 242 242 241 239 241 242 242 242 243 243 244 246 248 249 249 248 248 248 247 247 248 248 249 250 250 251 253 254 256 258 260 261 261 262 263 262 262 263 264 264 263 264 265 266 267 267 267 267 267 267 268 270 272 274 276 277 277 277 278 282 285 284 282 286 289 291 293 292 292 293 291 290 289 287 285
232 231 229 229 229 230 230 230 233 236 237 238 239 239 240 240 239 240 242 242 243 244 244 244 245 247 248 248 248 248 248 248 248 248 248 248 249 249 250 252 254 255 257 258 259 260 261 261 261 260 260 261 260 261 263 265 265 265 266 266 266 266 267 267 269 271 273 275 276 276 276 278 282 284 281 281 285 286 288 290 291 293 293 291 289 286 284 282
234 234 231 229 229 230 231 232 234 237 238 238 238 238 238 238 237 239 241 242 243 244 245 245 246 247 248 248 248 249 250 250 249 249 248 248 248 248 248 250 251 253 255 256 257 258 258 259 259 259 258 259 260 262 264 265 264 264 264 264 264 265 266 267 269 270 271 272 275 277 278 279 281 280 279 280 281 283 288 290 292 295 295 290 287 285 282 281
235 235 232 230 231 231 231 233 235 237 239 239 237 237 237 236 235 237 239 240 242 243 243 244 245 246 247 247 248 248 249 250 250 250 249 248 247 247 247 249 251 252 254 257 257 258 259 260 260 259 258 259 260 261 262 261 260 261 261 261 262 263 264 265 266 268 270 273 276 280 280 278 278 279 278 279 281 285 290 289 290 295 294 289 284 281 280 279
236 235 232 232 233 233 232 234 235 237 239 239 238 237 236 236 235 236 238 239 241 242 242 241 242 244 245 245 247 247 248 248 249 249 249 249 248 248 248 250 251 251 253 255 257 258 260 260 259 258 257 258 259 259 259 259 260 260 260 260 260 260 262 264 268 271 273 275 276 278 277 275 277 279 277 278 281 285 288 287 289 295 293 286 279 275 275 277
236 235 233 233 234 234 234 235 235 237 239 239 240 239 238 236 234 234 235 236 239 241 242 241 241 242 244 244 245 247 248 249 249 250 251 252 252 251 252 253 252 252 252 254 255 257 259 259 260 260 260 260 261 261 261 260 260 259 260 260 261 263 266 268 271 271 271 271 273 275 275 274 276 277 276 277 280 283 285 285 288 292 290 282 276 273 272 274
236 235 233 234 234 234 234 235 234 235 237 237 238 240 240 238 235 233 233 234 237 240 242 242 241 242 244 244 245 246 247 249 251 251 253 255 255 255 256 256 255 255 255 255 257 258 259 261 262 263 262 262 262 261 260 260 260 261 262 264 266 268 269 269 269 270 270 269 271 272 272 274 277 278 278 279 281 282 283 284 287 290 287 280 276 273 270 269
236 235 234 234 235 234 234 235 235 236 236 236 237 238 240 240 238 236 237 237 238 240 241 241 242 244 245 245 246 246 247 249 251 252 254 255 255 256 256 257 257 258 258 258 258 259 259 259 259 259 260 260 260 260 261 263 264 265 266 266 266 267 267 268 269 269 268 267 267 268 270 275 278 279 280 282 282 282 283 283 285 286 282 278 275 273 271 269
236 235 234 234 235 236 235 234 235 235 235 236 236 237 238 240 239 239 239 240 240 240 241 241 242 244 245 245 246 247 247 248 250 251 252 253 255 255 256 257 257 258 258 259 259 259 259 259 258 257 258 259 260 261 262 264 264 264 263 263 263 263 264 265 264 264 266 267 267 268 271 275 276 278 280 281 281 282 282 283 283 281 279 277 276 276 275 270
236 236 235 235 236 237 236 235 235 235 234 234 236 236 236 238 239 239 240 241 241 241 241 240 241 243 245 246 247 248 248 249 250 251 251 252 253 254 255 255 256 256 256 257 257 259 260 259 258 259 259 260 260 261 261 262 262 261 261 261 262 263 263 263 263 265 268 269 268 269 273 275 274 275 278 278 278 279 279 280 280 280 280 279 278 277 275 270
237 236 235 236 237 237 237 237 238 238 238 237 237 236 236 237 238 239 240 241 242 242 242 241 241 242 244 247 248 249 248 249 250 251 251 251 252 253 254 255 256 255 255 256 258 260 261 261 260 260 261 260 260 260 260 261 261 260 260 261 262 263 263 264 265 267 268 269 270 271 273 273 273 274 275 275 274 276 278 278 278 279 280 279 276 275 274 272
239 238 236 237 238 238 238 238 238 238 239 240 240 239 237 237 238 238 241 242 243 243 244 244 242 241 242 244 247 248 248 249 250 251 251 252 253 253 254 255 256 257 257 258 261 262 263 263 263 262 263 263 261 261 261 261 260 259 259 260 262 263 264 265 266 267 267 268 270 271 271 272 273 273 274 273 274 276 277 276 277 277 276 274 273 273 273 274
241 240 238 238 240 240 239 238 238 237 236 237 240 240 239 239 238 238 240 242 243 243 244 245 244 243 243 245 246 247 248 249 251 252 252 254 254 254 255 256 257 259 260 262 263 265 265 265 264 264 265 264 262 261 261 260 259 259 258 259 261 262 263 263 264 265 267 269 271 272 271 270 270 272 274 275 276 275 274 273 274 274 272 272 273 273 273 274
242 242 241 241 241 240 239 239 239 238 236 234 235 236 237 238 238 238 239 241 242 243 243 244 244 244 245 246 247 248 247 249 251 251 252 255 255 255 257 258 258 258 259 261 262 264 264 264 263 263 264 264 263 262 262 262 261 260 258 258 260 261 262 263 265 267 267 268 269 268 267 268 270 272 272 273 271 270 270 271 271 271 271 272 272 272 273 275
243 243 242 243 243 241 240 240 239 239 238 236 235 235 236 236 236 237 239 240 241 241 242 243 243 243 244 245 247 247 247 248 249 249 250 253 254 254 256 257 257 256 256 257 259 261 262 262 262 261 263 264 263 262 262 262 260 258 258 261 263 264 264 264 264 264 263 264 265 265 266 268 269 267 265 264 266 267 268 268 268 268 269 270 271 272 274 277
Height
5803 5805 5807 5809 5811 5813 5815 5817 5819 5820 5822 5824 5826 5828 5829 5831 5833 5834 5836 5837 5839 5840 5842 5843 5845 5846 5847 5849 5850 5851 5853 5854 5855 5855 5857 5858 5859 5860 5861 5862 5863 5864 5865 5865 5866 5867 5868 5869 5869 5870 5870 5871 5871 5872 5873 5873 5874 5874 5875 5875 5875 5875 5875 5875 5875 5875 5875 5875 5876 5876 5876 5876 5877 5876 5876 5876 5876 5876 5876 5875 5875 5875 5875 5875 5875 5874 5874 5874
5800 5802 5804 5806 5808 5811 5813 5815 5817 5818 5820 5822 5824 5826 5827 5829 5831 5832 5834 5835 5837 5839 5840 5842 5843 5845 5846 5848 5849 5850 5852 5853 5854 5855 5856 5857 5858 5859 5860 5861 5862 5863 5864 5865 5865 5866 5867 5868 5868 5869 5869 5870 5871 5871 5872 5872 5873 5873 5874 5874 5874 5874 5874 5874 5874 5874 5874 5874 5874 5875 5875 5875 5875 5875 5875 5875 5875 5875 5875 5875 5874 5874 5874 5874 5874 5873 5873 5872
5797 5800 5802 5804 5806 5808 5810 5812 5814 5816 5818 5820 5822 5824 5825 5827 5828 5830 5832 5833 5835 5837 5838 5840 5842 5843 5845 5846 5848 5849 5851 5852 5853 5854 5855 5856 5857 5858 5859 5860 5861 5862 5863 5864 5864 5865 5866 5867 5867 5868 5869 5869 5870 5870 5871 5871 5871 5872 5872 5873 5873 5873 5873 5873 5873 5873 5873 5873 5873 5873 5873 5874 5874 5874 5874 5873 5873 5873 5873 5873 5873 5873 5873 5873 5873 5872 5871 5871
5795 5797 5799 5801 5803 5806 5808 5810 5812 5814 5816 5818 5820 5822 5823 5825 5826 5828 5830 5831 5833 5835 5836 5838 5840 5842 5843 5845 5846 5848 5849 5851 5852 5853 5854 5855 5856 5857 5858 5859 5860 5861 5862 5863 5863 5864 5865 5866 5867 5867 5868 5868 5869 5869 5870 5870 5870 5870 5871 5871 5871 5872 5872 5872 5872 5872 5872 5872 5872 5872 5872 5873 5873 5873 5873 5872 5872 5872 5872 5872 5872 5872 5872 5872 5872 5871 5870 5869
5792 5794 5796 5799 5801 5803 5805 5807 5810 5812 5813 5815 5817 5819 5821 5823 5824 5826 5828 5829 5831 5833 5834 5836 5838 5840 5842 5843 5845 5846 5848 5849 5850 5852 5853 5854 5855 5856 5857 5858 5859 5860 5861 5862 5862 5863 5864 5865 5866 5866 5867 5867 5868 5868 5868 5868 5869 5869 5869 5870 5870 5870 5871 5871 5871 5871 5871 5871 5871 5871 5871 5871 5872 5872 5872 5871 5870 5870 5870 5870 5870 5870 5870 5870 5870 5869 5868 5868
5788 5791 5793 5796 5798 5800 5802 5805 5807 5809 5811 5813 5815 5817 5818 5820 5822 5824 5825 5827 5829 5831 5832 5834 5836 5838 5840 5841 5843 5845 5846 5847 5849 5850 5851 5853 5854 5855 5856 5857 5858 5859 5860 5860 5861 5862 5863 5864 5865 5865 5866 5866 5866 5867 5867 5867 5867 5868 5868 5868 5868 5869 5869 5869 5869 5869 5869 5869 5869 5870 5870 5870 5870 5871 5871 5870 5869 5869 5869 5868 5868 5868 5868 5868 5868 5868 5867 5866
5785 5787 5790 5792 5795 5797 5799 5802 5804 5806 5808 5810 5812 5814 5816 5818 5820 5821 5823 5825 5827 5828 5830 5832 5834 5836 5838 5839 5841 5843 5844 5846 5847 5848 5850 5851 5852 5853 5855 5855 5856 5857 5858 5859 5860 5861 5862 5862 5863 5864 5864 5865 5865 5865 5866 5866 5866 5866 5866 5867 5867 5867 5867 5867 5868 5868 5868 5868 5868 5868 5868 5868 5869 5869 5869 5868 5867 5868 5867 5866 5866 5866 5866 5866 5866 5865 5865 5864
5781 5784 5786 5789 5791 5794 5796 5798 5801 5803 5805 5807 5809 5811 5813 5815 5817 5819 5821 5822 5824 5826 5828 5830 5832 5834 5836 5837 5839 5841 5842 5844 5845 5847 5848 5849 5851 5852 5853 5854 5855 5856 5857 5858 5859 5860 5860 5861 5862 5862 5863 5864 5864 5864 5864 5865 5865 5865 5865 5865 5865 5866 5866 5866 5866 5866 5866 5866 5866 5867 5866 5867 5867 5868 5867 5865 5865 5866 5866 5865 5865 5864 5863 5863 5863 5863 5863 5862
5777 5780 5783 5785 5788 5790 5793 5795 5798 5800 5802 5804 5805 5808 5810 5811 5814 5816 5818 5820 5822 5824 5826 5828 5830 5832 5834 5835 5837 5839 5840 5842 5843 5845 5846 5848 5849 5850 5851 5852 5853 5854 5855 5856 5857 5858 5859 5860 5860 5861 5861 5862 5862 5863 5863 5863 5863 5863 5863 5864 5864 5864 5864 5864 5864 5865 5865 5865 5865 5865 5865 5865 5866 5867 5866 5863 5863 5864 5864 5864 5863 5862 5861 5861 5861 5861 5860 5860
5773 5776 5779 5781 5784 5787 5790 5792 5794 5797 5798 5800 5802 5804 5806 5808 5810 5812 5814 5816 5819 5821 5823 5825 5827 5829 5831 5833 5835 5836 5838 5840 5841 5843 5844 5846 5847 5848 5849 5850 5851 5853 5854 5855 5856 5856 5857 5858 5859 5859 5860 5860 5861 5861 5862 5862 5862 5862 5862 5862 5862 5863 5863 5863 5863 5863 5864 5864 5864 5863 5863 5864 5864 5865 5863 5860 5862 5863 5862 5862 5861 5860 5859 5859 5859 5859 5858 5858
5769 5772 5774 5777 5780 5783 5786 5788 5791 5793 5795 5797 5799 5801 5803 5805 5807 5809 5811 5813 5815 5818 5820 5822 5824 5827 5829 5831 5833 5834 5836 5838 5839 5841 5842 5844 5845 5846 5847 5849 5850 5851 5852 5853 5854 5855 5855 5856 5857 5857 5858 5858 5859 5859 5860 5860 5861 5861 5861 5861 5861 5861 5861 5861 5861 5861 5862 5862 5862 5861 5861 5862 5862 5862 5860 5859 5860 5860 5860 5860 5859 5858 5858 5857 5857 5856 5856 5856
5764 5767 5770 5773 5776 5778 5781 5784 5787 5789 5792 5794 5796 5798 5800 5802 5804 5806 5808 5810 5812 5815 5817 5819 5822 5824 5826 5828 5830 5832 5834 5836 5837 5839 5840 5842 5843 5844 5845 5847 5848 5849 5850 5851 5852 5853 5854 5854 5855 5856 5856 5857 5857 5858 5858 5859 5859 5859 5859 5859 5859 5859 5859 5859 5859 5859 5859 5859 5859 5859 5859 5861 5860 5858 5858 5858 5858 5858 5858 5857 5857 5856 5856 5855 5855 5854 5854 5853
5760 5763 5766 5769 5772 5774 5777 5779 5782 5785 5788 5790 5793 5795 5797 5799 5801 5803 5805 5807 5809 5812 5814 5816 5819 5821 5823 5825 5827 5829 5831 5833 5835 5836 5838 5839 5841 5842 5843 5844 5846 5847 5848 5849 5850 5851 5851 5852 5853 5854 5855 5855 5855 5856 5856 5857 5857 5858 5857 5857 5857 5857 5857 5857 5857 5857 5857 5856 5856 5855 5857 5859 5857 5855 5856 5856 5855 5855 5855 5855 5854 5854 5854 5853 5853 5852 5851 5851
5756 5759 5762 5765 5767 5770 5773 5775 5778 5780 5783 5785 5788 5791 5793 5795 5797 5799 5802 5804 5806 5809 5811 5813 5815 5818 5820 5822 5824 5826 5828 5830 5832 5834 5836 5837 5838 5840 5841 5842 5843 5844 5845 5846 5847 5848 5849 5850 5851 5852 5853 5853 5854 5854 5855 5855 5855 5855 5855 5855 5855 5855 5855 5855 5855 5855 5854 5854 5853 5852 5854 5857 5855 5853 5853 5853 5853 5852 5852 5852 5852 5852 5851 5851 5850 5849 5849 5848
5751 5754 5757 5760 5763 5766 5769 5771 5774 5776 5778 5781 5784 5786 5789 5791 5793 5796 5798 5800 5803 5805 5808 5810 5812 5814 5817 5819 5821 5823 5825 5827 5829 5831 5833 5834 5836 5837 5839 5840 5841 5842 5843 5844 5845 5846 5847 5848 5849 5849 5850 5851 5852 5852 5853 5853 5853 5853 5853 5852 5852 5853 5854 5854 5853 5853 5852 5851 5851 5850 5851 5854 5853 5850 5850 5850 5850 5849 5849 5849 5849 5849 5849 5849 5848 5847 5846 5845
5747 5750 5753 5756 5759 5762 5764 5767 5769 5772 5774 5777 5780 5782 5785 5787 5789 5791 5794 5796 5799 5801 5804 5806 5809 5811 5813 5816 5818 5820 5822 5824 5826 5828 5830 5831 5833 5834 5836 5837 5838 5839 5840 5841 5842 5843 5844 5845 5846 5847 5848 5849 5849 5850 5851 5851 5851 5850 5849 5849 5851 5851 5851 5852 5851 5850 5850 5849 5849 5848 5848 5851 5851 5849 5847 5847 5847 5847 5847 5847 5847 5847 5846 5846 5845 5844 5844 5843
5743 5746 5749 5752 5754 5757 5760 5763 5765 5768 5770 5773 5775 5778 5780 5783 5785 5787 5790 5792 5795 5797 5800 5802 5805 5807 5810 5812 5815 5816 5819 5821 5823 5825 5827 5828 5830 5831 5833 5834 5835 5836 5837 5838 5839 5840 5842 5842 5843 5844 5845 5846 5847 5848 5848 5848 5848 5847 5847 5848 5849 5849 5849 5849 5848 5848 5847 5846 5846 5846 5846 5848 5848 5846 5845 5844 5844 5844 5845 5845 5845 5844 5844 5843 5842 5842 5841 5841
5739 5742 5745 5747 5750 5753 5755 5758 5761 5764 5766 5769 5771 5773 5776 5778 5780 5783 5785 5788 5790 5793 5795 5798 5801 5803 5806 5809 5811 5813 5815 5818 5820 5821 5823 5825 5827 5828 5829 5830 5832 5833 5834 5835 5837 5838 5839 5840 5841 5842 5843 5844 5844 5845 5845 5845 5845 5845 5846 5846 5846 5846 5846 5846 5846 5845 5844 5843 5843 5842 5843 5845 5845 5843 5843 5842 5841 5842 5843 5843 5843 5842 5841 5840 5839 5839 5838 5838
5735 5738 5740 5743 5746 5748 5751 5754 5756 5759 5762 5765 5767 5769 5772 5773 5776 5778 5781 5783 5786 5788 5790 5793 5796 5799 5803 5806 5807 5809 5811 5813 5815 5817 5819 5821 5823 5824 5825 5827 5828 5830 5831 5832 5833 5834 5836 5837 5838 5839 5840 5841 5841 5841 5841 5842 5843 5843 5843 5843 5843 5844 5844 5844 5843 5842 5841 5840 5840 5840 5840 5841 5842 5842 5840 5838 5839 5841 5842 5841 5840 5839 5839 5838 5837 5836 5835 5835
5730 5733 5736 5739 5742 5745 5747 5749 5752 5755 5758 5760 5763 5765 5767 5769 5771 5774 5776 5779 5781 5783 5785 5788 5792 5795 5798 5801 5803 5805 5807 5809 5811 5813 5815 5817 5819 5820 5821 5823 5825 5826 5828 5829 5830 5831 5833 5834 5836 5837 5837 5837 5837 5838 5839 5839 5840 5840 5840 5840 5840 5841 5841 5841 5839 5838 5838 5836 5836 5837 5836 5836 5838 5839 5839 5836 5836 5838 5839 5838 5838 5837 5836 5835 5834 5833 5833 5832
5726 5729 5732 5735 5738 5741 5743 5745 5748 5751 5753 5756 5758 5760 5762 5765 5766 5769 5772 5773 5775 5777 5780 5784 5787 5790 5793 5796 5798 5800 5803 5805 5807 5810 5812 5813 5815 5816 5818 5820 5821 5822 5823 5825 5826 5828 5829 5831 5833 5833 5833 5833 5834 5835 5836 5836 5837 5837 5837 5837 5837 5838 5838 5837 5836 5835 5834 5832 5833 5833 5832 5833 5835 5836 5836 5835 5835 5836 5836 5835 5836 5835 5833 5832 5831 5831 5830 5829
5721 5724 5727 5730 5733 5736 5739 5742 5744 5747 5749 5752 5754 5756 5757 5759 5761 5764 5766 5768 5770 5773 5776 5779 5783 5786 5789 5792 5794 5797 5799 5801 5803 5806 5808 5810 5811 5813 5814 5815 5817 5818 5819 5821 5823 5825 5827 5829 5829 5829 5829 5831 5831 5832 5832 5833 5833 5833 5833 5833 5834 5834 5834 5834 5832 5832 5830 5828 5829 5829 5828 5829 5831 5831 5833 5833 5833 5833 5833 5833 5833 5832 5830 5829 5829 5828 5828 5827
5716 5719 5722 5725 5729 5731 5735 5738 5740 5743 5746 5747 5749 5751 5752 5755 5757 5759 5761 5763 5766 5768 5771 5775 5778 5781 5784 5787 5790 5792 5795 5797 5799 5801 5803 5805 5806 5808 5809 5811 5812 5814 5816 5818 5820 5821 5823 5825 5825 5825 5826 5827 5828 5828 5829 5829 5830 5830 5830 5830 5830 5830 5830 5829 5829 5828 5827 5826 5824 5823 5822 5824 5826 5827 5829 5830 5830 5830 5830 5830 5829 5828 5826 5826 5826 5825 5825 5824
5711 5715 5718 5721 5724 5727 5730 5733 5737 5740 5741 5743 5744 5745 5748 5751 5753 5755 5756 5757 5761 5765 5768 5771 5773 5777 5781 5782 5785 5788 5790 5792 5794 5796 5798 5800 5801 5803 5805 5807 5808 5811 5813 5814 5815 5818 5820 5821 5822 5822 5823 5824 5824 5825 5825 5825 5825 5826 5826 5827 5827 5826 5825 5825 5825 5824 5824 5822 5820 5819 5816 5816 5821 5823 5825 5827 5826 5826 5828 5827 5826 5823 5822 5822 5822 5822 5821 5820
5706 5709 5713 5716 5719 5722 5725 5729 5734 5736 5737 5739 5739 5740 5744 5747 5749 5750 5751 5751 5755 5761 5764 5767 5770 5774 5776 5778 5781 5784 5785 5788 5791 5792 5794 5796 5797 5799 5801 5803 5805 5807 5809 5810 5811 5814 5817 5817 5818 5819 5819 5820 5821 5822 5821 5820 5821 5822 5823 5823 5823 5822 5821 5821 5820 5819 5819 5818 5818 5816 5811 5808 5814 5818 5821 5823 5822 5823 5825 5824 5822 5820 5819 5819 5818 5818 5817 5816
5702 5705 5708 5711 5714 5718 5721 5726 5729 5729 5732 5734 5733 5736 5740 5742 5744 5746 5747 5746 5749 5757 5762 5764 5767 5770 5772 5774 5778 5780 5780 5784 5787 5788 5790 5792 5792 5795 5797 5799 5801 5804 5805 5806 5807 5810 5813 5813 5814 5815 5815 5816 5817 5818 5817 5816 5817 5819 5819 5819 5818 5818 5818 5817 5817 5815 5814 5814 5813 5813 5808 5803 5806 5812 5817 5818 5818 5819 5822 5821 5818 5817 5816 5816 5815 5814 5813 5812
5697 5701 5704 5706 5710 5713 5717 5721 5722 5725 5728 5727 5728 5732 5735 5737 5739 5741 5742 5740 5744 5755 5759 5760 5763 5766 5769 5771 5774 5774 5775 5781 5784 5783 5786 5788 5788 5791 5792 5794 5797 5799 5800 5801 5802 5806 5809 5809 5810 5811 5811 5812 5813 5814 5813 5812 5813 5815 5816 5815 5814 5814 5814 5813 5813 5811 5810 5809 5807 5807 5807 5802 5800 5806 5811 5812 5814 5816 5818 5817 5814 5813 5813 5812 5811 5810 5809 5809
5694 5696 5699 5702 5706 5708 5711 5714 5718 5721 5721 5721 5724 5728 5729 5732 5733 5735 5736 5733 5740 5751 5754 5756 5759 5762 5765 5767 5768 5769 5771 5777 5778 5778 5782 5783 5783 5786 5788 5790 5793 5794 5795 5796 5798 5802 5803 5804 5806 5807 5807 5808 5810 5810 5809 5809 5809 5810 5811 5810 5810 5810 5810 5809 5809 5807 5806 5804 5802 5802 5805 5802 5797 5800 5804 5804 5809 5813 5813 5812 5810 5810 5810 5808 5807 5806 5805 5805
5688 5690 5694 5697 5700 5703 5706 5710 5714 5714 5715 5718 5720 5722 5724 5726 5727 5729 5728 5729 5738 5745 5748 5753 5755 5757 5760 5761 5763 5765 5767 5771 5772 5775 5777 5777 5779 5781 5783 5786 5788 5789 5790 5791 5794 5797 5797 5799 5801 5802 5804 5805 5806 5806 5805 5805 5805 5806 5806 5805 5806 5806 5805 5806 5804 5803 5802 5798 5798 5800 5803 5800 5794 5795 5799 5800 5804 5808 5807 5806 5806 5806 5805 5803 5802 5801 5801 5801
5681 5684 5688 5689 5693 5698 5703 5707 5708 5707 5710 5713 5713 5716 5719 5719 5721 5721 5720 5727 5738 5740 5742 5747 5751 5753 5755 5757 5759 5761 5763 5765 5768 5770 5771 5772 5775 5777 5779 5782 5783 5784 5785 5787 5790 5792 5793 5795 5797 5798 5800 5801 5801 5801 5801 5800 5800 5801 5802 5801 5802 5801 5801 5801 5799 5799 5796 5793 5796 5798 5799 5798 5790 5788 5795 5798 5800 5802 5801 5801 5801 5801 5800 5799 5798 5797 5796 5796
5676 5678 5680 5682 5688 5693 5698 5702 5702 5702 5705 5706 5707 5710 5712 5712 5714 5711 5714 5729 5737 5733 5735 5741 5746 5750 5752 5753 5755 5757 5759 5761 5763 5765 5766 5769 5771 5772 5775 5777 5779 5780 5781 5784 5786 5787 5788 5790 5792 5794 5795 5796 5796 5796 5796 5796 5796 5797 5798 5798 5797 5796 5796 5795 5794 5794 5791 5790 5794 5795 5795 5794 5785 5784 5791 5794 5796 5798 5797 5796 5794 5794 5795 5794 5793 5792 5791 5791
5670 5673 5674 5678 5682 5686 5692 5696 5697 5697 5698 5700 5701 5704 5706 5706 5702 5702 5715 5729 5728 5724 5728 5734 5741 5745 5746 5748 5749 5751 5754 5755 5758 5759 5760 5763 5765 5768 5771 5773 5775 5776 5776 5779 5781 5781 5783 5785 5787 5787 5789 5790 5790 5791 5791 5792 5793 5793 5794 5794 5792 5791 5790 5789 5788 5788 5787 5789 5791 5790 5789 5786 5781 5784 5789 5789 5792 5794 5794 5792 5788 5787 5789 5788 5787 5787 5786 5785
5664 5667 5670 5672 5676 5680 5686 5689 5690 5689 5691 5694 5694 5696 5699 5694 5692 5702 5717 5722 5719 5720 5726 5729 5734 5738 5738 5741 5743 5745 5748 5749 5752 5754 5754 5757 5759 5763 5766 5767 5770 5770 5771 5775 5775 5776 5778 5780 5781 5782 5784 5785 5786 5787 5787 5787 5788 5788 5788 5788 5787 5786 5783 5782 5783 5783 5784 5786 5786 5785 5783 5778 5777 5783 5786 5786 5788 5789 5790 5789 5784 5781 5783 5782 5781 5781 5781 5781
5657 5660 5663 5667 5670 5674 5678 5681 5683 5683 5685 5688 5686 5687 5687 5682 5690 5704 5711 5714 5715 5719 5723 5723 5726 5729 5731 5735 5737 5740 5742 5744 5747 5748 5749 5751 5753 5757 5761 5763 5766 5767 5769 5770 5770 5771 5772 5774 5777 5778 5779 5780 5781 5781 5782 5782 5782 5781 5782 5781 5781 5781 5778 5778 5780 5779 5779 5780 5780 5779 5776 5773 5776 5779 5780 5781 5782 5784 5785 5784 5780 5778 5777 5776 5776 5775 5775 5775
5650 5653 5656 5659 5662 5666 5671 5675 5677 5676 5677 5680 5678 5676 5674 5677 5691 5702 5704 5709 5712 5713 5716 5715 5715 5719 5723 5728 5731 5734 5736 5738 5741 5742 5743 5745 5749 5753 5756 5759 5761 5763 5765 5765 5765 5767 5766 5768 5773 5773 5773 5775 5775 5775 5775 5775 5775 5775 5776 5774 5775 5777 5776 5775 5775 5774 5774 5773 5772 5773 5771 5771 5774 5774 5774 5775 5776 5778 5779 5779 5778 5776 5773 5771 5770 5770 5770 5770
5643 5645 5648 5651 5656 5662 5665 5668 5671 5669 5669 5672 5667 5663 5667 5678 5690 5696 5700 5705 5705 5706 5710 5708 5707 5711 5714 5719 5724 5727 5730 5732 5734 5735 5737 5740 5743 5747 5751 5754 5756 5757 5759 5760 5760 5761 5760 5763 5767 5767 5767 5769 5769 5769 5769 5769 5769 5769 5769 5769 5771 5772 5771 5770 5769 5769 5769 5766 5766 5767 5766 5768 5770 5769 5771 5771 5770 5772 5772 5773 5774 5773 5770 5768 5765 5765 5765 5765
5634 5637 5640 5645 5651 5656 5658 5661 5663 5661 5661 5661 5657 5658 5668 5678 5685 5690 5694 5698 5698 5699 5703 5702 5701 5703 5707 5711 5716 5721 5723 5725 5727 5728 5731 5733 5735 5741 5746 5748 5750 5752 5754 5755 5754 5755 5755 5756 5759 5760 5760 5762 5763 5763 5763 5763 5763 5763 5764 5766 5767 5766 5765 5765 5763 5763 5763 5760 5761 5762 5761 5762 5764 5764 5767 5767 5766 5766 5767 5768 5769 5768 5766 5764 5762 5761 5760 5760
5626 5629 5633 5640 5646 5649 5652 5655 5655 5653 5652 5650 5648 5655 5664 5672 5680 5685 5687 5689 5690 5691 5693 5694 5694 5696 5699 5702 5707 5712 5714 5716 5719 5722 5725 5726 5728 5736 5741 5742 5745 5747 5749 5749 5746 5748 5749 5749 5751 5754 5754 5754 5756 5755 5755 5757 5757 5757 5759 5761 5761 5759 5760 5760 5758 5757 5757 5754 5755 5756 5756 5756 5759 5761 5763 5762 5761 5760 5761 5763 5764 5763 5762 5760 5758 5757 5756 5756
5617 5620 5627 5636 5641 5642 5645 5647 5646 5644 5641 5637 5641 5651 5659 5667 5677 5678 5677 5679 5682 5682 5684 5688 5690 5690 5691 5695 5700 5702 5704 5707 5711 5714 5716 5719 5723 5731 5735 5735 5738 5740 5741 5740 5738 5740 5742 5741 5742 5746 5747 5746 5747 5748 5750 5752 5752 5752 5754 5754 5754 5754 5753 5753 5752 5752 5752 5750 5749 5750 5750 5752 5757 5758 5757 5757 5756 5755 5755 5757 5759 5760 5757 5755 5754 5753 5752 5752
5609 5612 5621 5631 5632 5633 5637 5638 5635 5631 5628 5630 5638 5647 5654 5661 5668 5669 5668 5673 5674 5674 5678 5683 5685 5683 5685 5690 5693 5695 5697 5700 5703 5706 5709 5713 5718 5724 5728 5728 5730 5733 5733 5731 5730 5733 5734 5733 5734 5738 5739 5739 5740 5743 5746 5748 5748 5747 5747 5747 5748 5747 5746 5746 5746 5746 5746 5745 5744 5746 5746 5748 5753 5753 5751 5751 5750 5750 5750 5751 5754 5755 5753 5751 5750 5749 5749 5749
5601 5604 5615 5624 5623 5624 5628 5625 5622 5621 5621 5624 5633 5642 5648 5654 5660 5660 5661 5665 5665 5666 5671 5675 5676 5677 5680 5683 5685 5688 5691 5691 5694 5697 5700 5706 5712 5717 5721 5723 5724 5725 5724 5722 5724 5727 5727 5726 5728 5729 5731 5733 5736 5738 5740 5739 5740 5740 5740 5741 5741 5741 5740 5739 5738 5739 5741 5741 5743 5744 5742 5743 5747 5747 5746 5745 5744 5745 5746 5745 5748 5751 5749 5747 5746 5746 5746 5745
5591 5598 5611 5616 5612 5615 5616 5612 5613 5616 5615 5620 5630 5638 5643 5646 5649 5651 5654 5658 5658 5659 5662 5666 5669 5672 5673 5676 5678 5680 5681 5683 5685 5688 5692 5698 5704 5710 5714 5715 5716 5717 5717 5716 5718 5721 5720 5718 5719 5720 5723 5727 5728 5729 5731 5732 5733 5733 5733 5733 5733 5733 5733 5733 5734 5737 5739 5739 5739 5739 5735 5737 5742 5742 5739 5738 5739 5741 5741 5738 5741 5745 5744 5743 5742 5742 5742 5741
5584 5595 5605 5603 5601 5605 5604 5601 5605 5607 5608 5618 5627 5630 5632 5636 5639 5642 5647 5649 5649 5652 5655 5659 5664 5666 5668 5671 5673 5672 5674 5676 5678 5681 5687 5692 5697 5703 5706 5706 5708 5709 5710 5710 5713 5715 5712 5709 5712 5714 5716 5719 5720 5722 5725 5725 5725 5724 5723 5725 5727 5729 5731 5731 5732 5733 5732 5733 5734 5733 5728 5730 5736 5737 5733 5732 5734 5737 5736 5733 5735 5739 5739 5737 5737 5737 5738 5737
5579 5588 5592 5591 5593 5594 5591 5592 5598 5599 5604 5614 5618 5618 5623 5628 5630 5633 5637 5640 5643 5646 5648 5652 5657 5660 5662 5665 5665 5665 5668 5669 5670 5676 5682 5685 5690 5696 5697 5697 5699 5701 5703 5706 5708 5708 5705 5704 5707 5707 5707 5711 5712 5714 5716 5716 5716 5716 5719 5723 5724 5726 5727 5725 5725 5725 5724 5727 5729 5725 5721 5723 5730 5731 5729 5728 5729 5731 5730 5728 5731 5734 5733 5731 5732 5732 5732 5732
5571 5576 5579 5582 5583 5582 5583 5588 5593 5595 5600 5606 5607 5610 5615 5618 5621 5628 5632 5635 5637 5639 5641 5646 5651 5653 5654 5655 5656 5658 5661 5662 5666 5671 5674 5677 5682 5688 5688 5688 5690 5692 5696 5698 5699 5698 5696 5697 5699 5697 5696 5700 5703 5706 5709 5711 5712 5712 5715 5718 5718 5719 5719 5717 5719 5717 5715 5720 5721 5715 5715 5721 5725 5725 5724 5724 5723 5723 5724 5723 5725 5728 5726 5725 5726 5725 5727 5728
5560 5563 5568 5573 5573 5573 5577 5583 5585 5586 5592 5598 5598 5601 5605 5608 5615 5622 5624 5625 5628 5632 5636 5641 5645 5644 5643 5645 5649 5652 5655 5658 5661 5662 5665 5669 5675 5678 5679 5680 5682 5685 5687 5688 5688 5687 5686 5687 5689 5688 5688 5692 5697 5702 5704 5703 5704 5705 5708 5709 5709 5710 5711 5710 5709 5707 5709 5713 5710 5709 5713 5717 5719 5721 5720 5720 5718 5716 5717 5718 5718 5720 5719 5719 5720 5720 5721 5722
5549 5552 5559 5564 5564 5564 5569 5574 5576 5579 5586 5589 5588 5591 5597 5601 5607 5611 5611 5613 5619 5624 5628 5631 5634 5634 5635 5640 5644 5647 5650 5653 5652 5653 5657 5663 5667 5669 5670 5672 5674 5676 5677 5677 5677 5677 5675 5675 5679 5681 5681 5685 5693 5697 5695 5693 5694 5697 5700 5701 5702 5703 5703 5700 5698 5701 5706 5703 5698 5706 5712 5709 5712 5717 5716 5713 5711 5710 5712 5713 5713 5713 5713 5714 5714 5714 5714 5714
5540 5544 5552 5555 5554 5555 5561 5567 5571 5574 5580 5581 5580 5584 5590 5593 5597 5599 5601 5607 5611 5614 5617 5618 5621 5626 5631 5636 5638 5639 5642 5643 5642 5646 5652 5657 5660 5661 5662 5664 5666 5667 5669 5668 5668 5668 5667 5667 5672 5675 5674 5678 5685 5688 5687 5686 5688 5690 5692 5693 5695 5695 5694 5692 5692 5697 5700 5691 5690 5704 5707 5700 5704 5712 5710 5707 5705 5705 5708 5709 5708 5708 5708 5708 5707 5707 5707 5707
5532 5537 5544 5546 5544 5546 5554 5561 5564 5566 5570 5573 5573 5576 5581 5584 5588 5593 5596 5600 5602 5604 5606 5607 5614 5623 5627 5630 5630 5628 5631 5634 5635 5641 5648 5650 5652 5653 5655 5656 5658 5660 5661 5660 5660 5661 5659 5659 5665 5668 5667 5670 5677 5680 5680 5680 5680 5681 5682 5684 5686 5686 5686 5685 5686 5691 5690 5682 5686 5697 5696 5692 5699 5704 5701 5699 5699 5702 5704 5703 5702 5702 5701 5700 5700 5700 5700 5699
5525 5529 5536 5538 5535 5539 5546 5551 5552 5554 5560 5565 5564 5568 5574 5577 5581 5587 5590 5591 5592 5597 5600 5601 5610 5619 5621 5622 5620 5618 5624 5630 5632 5638 5643 5642 5642 5645 5647 5648 5650 5653 5652 5652 5654 5653 5651 5652 5658 5661 5657 5658 5667 5672 5671 5670 5670 5670 5672 5675 5678 5678 5677 5677 5678 5682 5682 5677 5682 5688 5685 5686 5693 5695 5694 5693 5694 5696 5697 5695 5695 5695 5693 5694 5693 5693 5693 5692
5518 5522 5527 5528 5526 5530 5536 5540 5542 5544 5548 5552 5554 5560 5565 5568 5575 5581 5581 5582 5585 5589 5592 5596 5604 5611 5611 5610 5608 5610 5621 5628 5628 5633 5635 5632 5632 5636 5637 5638 5642 5643 5643 5644 5645 5645 5644 5645 5650 5653 5646 5646 5659 5664 5660 5660 5660 5658 5660 5667 5670 5669 5668 5669 5673 5677 5675 5673 5676 5677 5674 5679 5688 5690 5688 5686 5686 5687 5688 5688 5689 5688 5687 5687 5686 5686 5686 5686
5511 5513 5517 5518 5516 5520 5526 5530 5533 5533 5535 5542 5548 5554 5557 5561 5569 5572 5569 5571 5576 5580 5585 5590 5596 5600 5598 5597 5599 5607 5618 5621 5621 5623 5623 5620 5622 5626 5626 5628 5631 5632 5633 5636 5636 5637 5638 5638 5641 5644 5637 5638 5651 5654 5650 5650 5644 5641 5651 5663 5665 5663 5662 5663 5666 5668 5668 5667 5667 5665 5667 5676 5682 5679 5677 5677 5678 5679 5681 5681 5682 5681 5680 5680 5679 5680 5680 5681